Retour au catalogue

TELKOM 3S

ActifCommunicationsGEO
NORAD 41944·PAYLOAD·🇮🇩 Indonesia

Lancé Feb 14, 2017 depuis Guiana Space Centre

Loading…

TLE

FraisSource: Space-Track

Époque: Sep 14, 2026, 14:21 UTC

1 41944U 17007A   26257.59850111 -.00000370  00000-0  00000-0 0  9990
2 41944   0.0177 185.5594 0002269 347.2749 154.2113  1.00271708 35035

Suivez TELKOM 3S en temps réel avec AllMySat

Download on the App Store